sat.trackr.live / text

‹ back to catalog

STARLINK-34885

NORAD 65328 · 2025-189F

PAYLOAD ACTIVE UNKNOWN

§ Identity

Operator
Country
US
Launch date
2025-08-27
Launch site
AFETR
Launch vehicle
Mass (kg)
RCS (m²)

Purposes: comms

External: N2YO · Heavens-Above · Gunter

§ Orbital elements

Epoch: 2026-09-20T11:50:30.206688Z

Period
94.01 min
Inclination
53.1585°
Eccentricity
0.0000988
Mean motion
15.31698309 rev/d
Perigee alt
470.1 km
Apogee alt
471.4 km
Semi-major
6,848.9 km
B*
5.2915e-4
RAAN
20.3777°
Arg perigee
72.0321°
Mean anomaly
288.0788°
Rev number
6,089

§ Raw data

STARLINK-348851 65328U 25189F   26263.49340517  .00016090  00000+0  52915-3 0  99912 65328  53.1585  20.3777 0000988  72.0321 288.0788 15.31698309 60898

JSON: /api/v1/satellites/65328 · /tle

For live sub-satellite position, see the globe view (requires WebGL).

§ Visibility from observer

Set your observer location to see the next 7 days of passes ≥ 10°. The values pass through the URL so the page stays shareable.

No JS? Fill the form by hand. The geolocation button needs JavaScript.